Regional Weather Roundup
Issued by NWS State College, PA

Home | Current Version | Previous Version | Graphics & Text | Print | Product List | Glossary On
Versions: 1 2 3 4 5 6 7 8 9 10 11 12 13 14 15 16 17 18 19 20 21 22 23 24 25 26 27 28 29 30 31 32 33 34 35 36 37 38 39 40 41 42 43 44 45 46 47 48 49 50
000
ASUS41 KCTP 171403
RWRCTP

REGIONAL WEATHER ROUNDUP
NATIONAL WEATHER SERVICE STATE COLLEGE PA
1000 AM EDT THU APR 17 2014

Note: "fair" indicates few or no clouds below 12,000 feet with no
significant weather and/or obstructions to visibility.

* = STATION THAT DOES NOT REPORT PRECIPITATION /E.G. RAIN...SNOW...ETC/
    THUNDER OR FOG.

PAZ002>004-007>009-013>016-020>023-029>032-171500-
WESTERN PENNSYLVANIA

CITY           SKY/WX    TMP DP  RH WIND       PRES   REMARKS
ERIE           SUNNY     45  18  34 S24G32    30.41F
MEADVILLE      SUNNY     41  19  41 VRB7      30.43S
FRANKLIN*      SUNNY     41  19  42 SE12G23   30.47R
NEW CASTLE     FAIR      44  19  37 SE10      30.46F
BEAVER COUNTY  SUNNY     43  21  42 SE8       30.45S
BUTLER*        MOSUNNY   43  19  39 SE9       30.49R
PITTSBURGH INT CLOUDY    45  19  35 SE10      30.45S
PITTSBURGH     MOSUNNY   47  19  33 SE9       30.46S
INDIANA*       MOSUNNY   41  21  45 SE10G16   30.51R
LATROBE        MOSUNNY   43  21  42 SE13      30.50R
WASHINGTON CO* MOSUNNY   45  19  36 SE8       30.48R
$$

PAZ004>006-010>012-017>019-024>028-033>037-041-042-045-046-049>053-171500-
CENTRAL PENNSYLVANIA

CITY           SKY/WX    TMP DP  RH WIND       PRES   REMARKS
BRADFORD       MOSUNNY   35  15  44 S12G23    30.48S
DUBOIS         MOSUNNY   39  18  42 SE13G22   30.49R
CLEARFIELD     MOSUNNY   40  17  39 S9G18     30.55S
JOHNSTOWN      PTSUNNY   36  19  50 S17G26    30.49R
ALTOONA        MOSUNNY   41  22  46 S13       30.57R
STATE COLLEGE  SUNNY     41  21  45 SE12G17   30.59S
WILLIAMSPORT   MOSUNNY   42  19  39 SE8       30.64S
SELINSGROVE    SUNNY     42  21  43 E7        30.66R
FT INDIANTOWN  SUNNY     41  26  53 E6        30.67R
CAPITAL CITY   SUNNY     42  25  50 E9        30.67R
HARRISBURG     PTSUNNY   45  26  47 SE12      30.67R
YORK           SUNNY     44  24  45 SE12      30.66R
$$

PAZ038>040-043-044-047-048-054-055-060>062-067>071-171500-
EASTERN PENNSYLVANIA

CITY           SKY/WX    TMP DP  RH WIND       PRES   REMARKS
SCRANTON       SUNNY     41  16  36 S10       30.65R
MOUNT POCONO   SUNNY     34  16  47 SE14      30.62R
ALLENTOWN      SUNNY     43  21  41 E9        30.69R
QUAKERTOWN*    SUNNY     41  25  52 E8        30.69R
READING        SUNNY     44  26  49 SE10      30.67S
LANCASTER      SUNNY     42  29  59 SE14      30.66R
COATESVILLE    SUNNY     43  27  52 E14G20    30.66R
POTTSTOWN      SUNNY     42  27  55 SE6       30.69S
BLUE BELL      SUNNY     45  30  57 E10       30.68R
DOYLESTOWN     SUNNY     41  27  57 VRB5      30.68R
WILLOW GROVE   NOT AVBL
NORTH PHILA    MOSUNNY   45  27  49 E12       30.71R
PHILADELPHIA   MOSUNNY   46  29  51 E9        30.71R
$$



USA.gov is the U.S. government's official web portal to all federal, state and local government web resources and services.